Location: Unspecified
(0.0000°N, 0.0000°E)
Time: 07:09:51
(UTC+00:00)

N. Korean satellite - Pass Details

Date: 19 September 2021
Orbit: 448 x 499 km, 97.3° (Epoch: 17 September)

Event Time Altitude Azimuth Distance (km) Brightness Sun altitude
Rises 04:55:49 0° 9° (N) 2,522 10.3 -14.5°
Reaches altitude 10° 04:57:51 10° 7° (N) 1,655 9.4 -14.0°
Maximum altitude 05:01:25 79° 280° (W) 501 6.4 -13.1°
Drops below altitude 10° 05:05:02 10° 194° (SSW) 1,687 9.1 -12.2°
Sets 05:07:08 0° 193° (SSW) 2,576 10.1 -11.7°
